Location: Tierz
(42.1336°N, 0.3549°W)
Time: 00:00:21
(UTC+00:00)

USA 215 - Pass Details

Date: 29 October 2020
Orbit: 1102 x 1106 km, 123.0° (Epoch: 28 November)

Event Time Altitude Azimuth Distance (km) Brightness Sun altitude
Exits shadow 19:57:29 37° 3° (N) 1,637 4.1 -33.6°
Drops below altitude 10° 20:02:21 10° 320° (NW) 2,965 6.1 -34.5°
Sets 20:04:59 0° 313° (NW) 3,925 6.9 -34.9°
